Weather History for Hagerstown, MD

Change the Weather History Date:

Friday, November 30, 2012

  Actual Average Record
Temperature  
Mean Temperature 40 °F -  
Max Temperature 51 °F 46 °F 69 °F (1998)
Min Temperature 28 °F 32 °F 20 °F (2013)
Degree Days  
Heating Degree Days 25    
Month to date heating degree days 703  
Moisture  
Dew Point 26 °F    
Average Humidity 60    
Maximum Humidity 78    
Minimum Humidity 42    
Precipitation  
Precipitation 0.00 in - - ()
Month to date precipitation 0.68  
Year to date precipitation 35.08  
Sea Level Pressure  
Sea Level Pressure 30.37 in    
Wind  
Wind Speed 1 mph (East)    
Max Wind Speed 17 mph    
Max Gust Speed 30 mph    
Visibility 10 miles    
Events      
Averages and records for this station are not official NWS values.
T = Trace of Precipitation, MM = Missing Value Source: NWS Daily Summary

Daily Weather History Graph

Daily Weather History Graph

Search for Another Location

Airport:

Trip Planner

Search our weather history database for the weather conditions in past years. The results will help you decide how hot, cold, wet, or windy it might be!

Date:

Astronomy

Nov. 30, 2012 Rise Set
Actual Time 7:12 AM EST 4:47 PM EST
Civil Twilight 6:42 AM EST 5:17 PM EST
Nautical Twilight 6:08 AM EST 5:50 PM EST
Astronomical Twilight 5:36 AM EST 6:22 PM EST
Moon 6:40 PM EST (11/30) 8:42 AM EST (11/30)
Length of Visible Light 10h 34m
Length of Day
9h 34m
Waning Gibbous, 96% of the Moon is Illuminated
Nov 30
Waning Gibbous
Dec 6
Last Quarter
Dec 13
New
Dec 20
First Quarter
Dec 28
Full

Hourly Weather History & Observations

Time (EST) Temp. Windchill Dew Point Humidity Pressure Visibility Wind Dir Wind Speed Gust Speed Precip Events Conditions
12:53 AM 36.0 °F - 21.9 °F 57% 30.35 in 10.0 mi Calm Calm - N/A   Clear
1:53 AM 35.1 °F - 21.9 °F 59% 30.35 in 10.0 mi Calm Calm - N/A   Clear
2:53 AM 33.1 °F - 23.0 °F 66% 30.36 in 10.0 mi Calm Calm - N/A   Clear
3:53 AM 32.0 °F - 21.9 °F 66% 30.35 in 10.0 mi Calm Calm - N/A   Clear
4:53 AM 28.9 °F - 23.0 °F 78% 30.37 in 10.0 mi Calm Calm - N/A   Clear
5:53 AM 28.9 °F - 23.0 °F 78% 30.38 in 10.0 mi Calm Calm - N/A   Clear
6:53 AM 30.0 °F - 21.9 °F 72% 30.39 in 10.0 mi Calm Calm - N/A   Clear
7:53 AM 30.0 °F - 24.1 °F 79% 30.40 in 9.0 mi Calm Calm - N/A   Overcast
8:53 AM 35.1 °F - 26.1 °F 70% 30.40 in 10.0 mi Calm Calm - N/A   Clear
9:53 AM 36.0 °F 33.3 °F 28.9 °F 76% 30.40 in 6.0 mi WNW 3.5 mph - N/A   Haze
10:53 AM 39.9 °F - 26.1 °F 58% 30.39 in 9.0 mi Calm Calm - N/A   Scattered Clouds
11:53 AM 44.1 °F - 30.0 °F 58% 30.37 in 9.0 mi Calm Calm - N/A   Clear
12:53 PM 46.9 °F - 30.0 °F 52% 30.36 in 9.0 mi Variable 3.5 mph - N/A   Partly Cloudy
1:53 PM 48.9 °F - 26.1 °F 41% 30.34 in 10.0 mi South 3.5 mph - N/A   Clear
2:53 PM 50.0 °F - 28.9 °F 44% 30.33 in 10.0 mi ESE 3.5 mph - N/A   Clear
3:53 PM 50.0 °F - 30.9 °F 48% 30.32 in 10.0 mi ENE 4.6 mph - N/A   Clear
4:53 PM 46.9 °F - 28.9 °F 50% 30.33 in 10.0 mi Calm Calm - N/A   Clear
5:53 PM 44.1 °F 41.5 °F 26.1 °F 49% 30.35 in 10.0 mi ENE 4.6 mph - N/A   Clear
6:53 PM 43.0 °F 40.3 °F 27.0 °F 53% 30.36 in 10.0 mi East 4.6 mph - N/A   Scattered Clouds
7:53 PM 42.1 °F 39.2 °F 28.0 °F 58% 30.37 in 10.0 mi East 4.6 mph - N/A   Clear
8:53 PM 39.9 °F - 27.0 °F 60% 30.37 in 10.0 mi Calm Calm - N/A   Clear
9:53 PM 37.0 °F - 28.0 °F 70% 30.38 in 8.0 mi Calm Calm - N/A   Clear
10:53 PM 39.9 °F - 26.1 °F 58% 30.38 in 10.0 mi Calm Calm - N/A   Scattered Clouds